Big Bear City, CA

1:47 PM PST on December 03, 2016 (GMT -0800)
Big Bear City

Weather History for KL35 - October, 2013

Change the Weather History Date:

Friday, October 18, 2013

  Actual Average (KBUO) Record (KBUO)
Temperature  
Mean Temperature 43 °F -  
Max Temperature 60 °F 76 °F 87 °F (1997)
Min Temperature 26 °F 50 °F 48 °F (1997)
Degree Days  
Heating Degree Days 22    
Moisture  
Dew Point 13 °F    
Average Humidity 36    
Maximum Humidity 59    
Minimum Humidity 14    
Precipitation  
Precipitation 0.00 in - - ()
Sea Level Pressure  
Sea Level Pressure 30.25 in    
Wind  
Wind Speed 2 mph (ENE)    
Max Wind Speed 12 mph    
Max Gust Speed -    
Visibility 10 miles    
Events      
Averages and records for this station are not official NWS values.
T = Trace of Precipitation, MM = Missing Value Source: NWS Daily Summary

Daily Weather History Graph

Daily Weather History Graph

Search for Another Location

Airport or City:

Trip Planner

Search our weather history database for the weather conditions in past years. The results will help you decide how hot, cold, wet, or windy it might be!

Date:

Astronomy

Oct. 18, 2013 Rise Set
Actual Time 6:55 AM PDT 6:09 PM PDT
Civil Twilight 6:30 AM PDT 6:34 PM PDT
Nautical Twilight 6:00 AM PDT 7:03 PM PDT
Astronomical Twilight 5:31 AM PDT 7:32 PM PDT
Moon 6:02 PM PDT (10/18) 6:35 AM PDT (10/18)
Length of Visible Light 12h 04m
Length of Day
11h 13m
Full, 100% of the Moon is Illuminated
Oct 18
Full
Oct 18
Full
Oct 26
Last Quarter
Nov 3
New
Nov 9
First Quarter

Hourly Weather History & Observations

Time (PDT) Temp. Windchill Dew Point Humidity Pressure Visibility Wind Dir Wind Speed Gust Speed Precip Events Conditions
12:15 AM 30.2 °F - 15.8 °F 55% 30.20 in 10.0 mi Calm Calm - N/A   Clear
12:35 AM 30.2 °F - 15.8 °F 55% 30.21 in 10.0 mi Calm Calm - N/A   Clear
12:55 AM 30.2 °F - 15.8 °F 55% 30.21 in 10.0 mi Calm Calm - N/A   Clear
1:15 AM 28.4 °F - 15.8 °F 59% 30.21 in 10.0 mi Calm Calm - N/A   Clear
1:35 AM 30.2 °F - 15.8 °F 55% 30.21 in 10.0 mi Calm Calm - N/A   Clear
1:55 AM 28.4 °F - 14.0 °F 55% 30.22 in 10.0 mi Calm Calm - N/A   Clear
2:15 AM 28.4 °F - 14.0 °F 55% 30.22 in 10.0 mi Calm Calm - N/A   Clear
2:35 AM 28.4 °F - 14.0 °F 55% 30.22 in 10.0 mi Calm Calm - N/A   Clear
2:55 AM 28.4 °F - 14.0 °F 55% 30.22 in 10.0 mi Calm Calm - N/A   Clear
3:15 AM 28.4 °F - 12.2 °F 51% 30.22 in 10.0 mi Calm Calm - N/A   Clear
3:35 AM 28.4 °F - 12.2 °F 51% 30.22 in 10.0 mi Calm Calm - N/A   Clear
3:55 AM 28.4 °F - 14.0 °F 55% 30.22 in 10.0 mi Calm Calm - N/A   Clear
4:15 AM 28.4 °F - 12.2 °F 51% 30.22 in 10.0 mi Calm Calm - N/A   Clear
4:35 AM 28.4 °F - 14.0 °F 55% 30.22 in 10.0 mi Calm Calm - N/A   Clear
4:55 AM 28.4 °F - 14.0 °F 55% 30.22 in 10.0 mi Calm Calm - N/A   Clear
5:15 AM 28.4 °F - 14.0 °F 55% 30.23 in 10.0 mi Calm Calm - N/A   Clear
5:35 AM 26.6 °F - 14.0 °F 59% 30.23 in 10.0 mi Calm Calm - N/A   Clear
5:55 AM 28.4 °F - 14.0 °F 55% 30.23 in 10.0 mi Calm Calm - N/A   Clear
6:15 AM 28.4 °F 23.3 °F 14.0 °F 55% 30.23 in 10.0 mi East 4.6 mph - N/A   Clear
6:35 AM 26.6 °F - 14.0 °F 59% 30.24 in 10.0 mi Calm Calm - N/A   Clear
6:55 AM 26.6 °F - 14.0 °F 59% 30.24 in 10.0 mi Calm Calm - N/A   Clear
7:15 AM 28.4 °F - 14.0 °F 55% 30.24 in 10.0 mi Calm Calm - N/A   Clear
7:35 AM 28.4 °F - 14.0 °F 55% 30.25 in 10.0 mi Calm Calm - N/A   Clear
7:55 AM 30.2 °F 25.4 °F 14.0 °F 51% 30.25 in 10.0 mi East 4.6 mph - N/A   Clear
8:15 AM 32.0 °F 26.4 °F 17.6 °F 55% 30.26 in 10.0 mi East 5.8 mph - N/A   Clear
8:35 AM 35.6 °F 32.8 °F 15.8 °F 44% 30.27 in 10.0 mi East 3.5 mph - N/A   Clear
8:55 AM 41.0 °F 37.1 °F 17.6 °F 39% 30.27 in 10.0 mi ENE 5.8 mph - N/A   Clear
9:15 AM 44.6 °F 42.2 °F 19.4 °F 37% 30.27 in 10.0 mi ENE 4.6 mph - N/A   Clear
9:35 AM 51.8 °F - 14.0 °F 22% 30.27 in 10.0 mi ENE 9.2 mph - N/A   Clear
9:55 AM 53.6 °F - 14.0 °F 21% 30.28 in 10.0 mi ENE 10.4 mph - N/A   Clear
10:15 AM 53.6 °F - 14.0 °F 21% 30.28 in 10.0 mi East 8.1 mph - N/A   Clear
10:35 AM 55.4 °F - 14.0 °F 20% 30.27 in 10.0 mi ENE 6.9 mph - N/A   Clear
10:55 AM 55.4 °F - 12.2 °F 18% 30.27 in 10.0 mi ENE 8.1 mph - N/A   Clear
11:15 AM 55.4 °F - 10.4 °F 17% 30.27 in 10.0 mi East 9.2 mph - N/A   Clear
11:35 AM 57.2 °F - 12.2 °F 17% 30.27 in 10.0 mi ENE 8.1 mph - N/A   Clear
11:55 AM 57.2 °F - 12.2 °F 17% 30.27 in 10.0 mi ENE 9.2 mph - N/A   Clear
12:15 PM 59.0 °F - 12.2 °F 16% 30.26 in 10.0 mi NE 10.4 mph - N/A   Clear
12:35 PM 59.0 °F - 12.2 °F 16% 30.26 in 10.0 mi NE 10.4 mph - N/A   Clear
12:55 PM 59.0 °F - 10.4 °F 15% 30.25 in 10.0 mi ENE 6.9 mph - N/A   Clear
1:15 PM 59.0 °F - 10.4 °F 15% 30.25 in 10.0 mi NE 6.9 mph - N/A   Clear
1:35 PM 59.0 °F - 12.2 °F 16% 30.24 in 10.0 mi East 8.1 mph - N/A   Clear
1:55 PM 59.0 °F - 12.2 °F 16% 30.24 in 10.0 mi ENE 11.5 mph - N/A   Clear
2:15 PM 59.0 °F - 12.2 °F 16% 30.24 in 10.0 mi NE 6.9 mph - N/A   Clear
2:35 PM 59.0 °F - 12.2 °F 16% 30.24 in 10.0 mi East 9.2 mph - N/A   Clear
2:55 PM 60.8 °F - 12.2 °F 15% 30.24 in 10.0 mi ENE 9.2 mph - N/A   Clear
3:15 PM 59.0 °F - 12.2 °F 16% 30.24 in 10.0 mi ENE 9.2 mph - N/A   Clear
3:35 PM 59.0 °F - 12.2 °F 16% 30.24 in 10.0 mi East 6.9 mph - N/A   Clear
3:55 PM 60.8 °F - 10.4 °F 14% 30.24 in 10.0 mi East 9.2 mph - N/A   Clear
4:15 PM 60.8 °F - 12.2 °F 15% 30.24 in 10.0 mi East 10.4 mph - N/A   Clear
4:35 PM 59.0 °F - 12.2 °F 16% 30.24 in 10.0 mi East 11.5 mph - N/A   Clear
4:55 PM 57.2 °F - 12.2 °F 17% 30.24 in 10.0 mi ENE 9.2 mph - N/A   Clear
5:15 PM 57.2 °F - 12.2 °F 17% 30.24 in 10.0 mi ENE 9.2 mph - N/A   Clear
5:35 PM 55.4 °F - 12.2 °F 18% 30.25 in 10.0 mi East 8.1 mph - N/A   Clear
5:55 PM 53.6 °F - 12.2 °F 19% 30.25 in 10.0 mi Calm Calm - N/A   Clear
6:15 PM 51.8 °F - 12.2 °F 21% 30.26 in 10.0 mi Calm Calm - N/A   Clear
6:35 PM 46.4 °F - 14.0 °F 27% 30.27 in 10.0 mi Calm Calm - N/A   Clear
6:55 PM 42.8 °F - 14.0 °F 31% 30.27 in 10.0 mi Calm Calm - N/A   Clear
7:15 PM 41.0 °F - 14.0 °F 33% 30.28 in 10.0 mi Calm Calm - N/A   Clear
7:35 PM 41.0 °F - 14.0 °F 33% 30.28 in 10.0 mi Calm Calm - N/A   Clear
7:55 PM 35.6 °F - 12.2 °F 38% 30.28 in 10.0 mi Calm Calm - N/A   Clear
8:15 PM 35.6 °F - 12.2 °F 38% 30.29 in 10.0 mi Calm Calm - N/A   Clear
8:35 PM 33.8 °F - 12.2 °F 41% 30.29 in 10.0 mi Calm Calm - N/A   Clear
8:55 PM 32.0 °F - 12.2 °F 44% 30.29 in 10.0 mi Calm Calm - N/A   Clear
9:15 PM 32.0 °F - 10.4 °F 41% 30.30 in 10.0 mi Calm Calm - N/A   Clear
9:35 PM 32.0 °F - 10.4 °F 41% 30.30 in 10.0 mi Calm Calm - N/A   Clear
9:55 PM 32.0 °F - 8.6 °F 38% 30.30 in 10.0 mi Calm Calm - N/A   Clear
10:15 PM 30.2 °F - 8.6 °F 40% 30.31 in 10.0 mi Calm Calm - N/A   Clear
10:35 PM 30.2 °F - 5.0 °F 34% 30.30 in 10.0 mi Calm Calm - N/A   Clear
10:55 PM 28.4 °F - 5.0 °F 37% 30.30 in 10.0 mi Calm Calm - N/A   Clear
11:15 PM 28.4 °F - 3.2 °F 34% 30.30 in 10.0 mi Calm Calm - N/A   Clear
11:35 PM 28.4 °F - 3.2 °F 34% 30.30 in 10.0 mi Calm Calm - N/A   Clear
11:55 PM 28.4 °F - 3.2 °F 34% 30.30 in 10.0 mi Calm Calm - N/A   Clear